2021-088C (49262 NORAD) Tracking and Keplerian Element Data

This shows tracking and keplerian element data for the satellite.

Feedback or suggestion? Click here.




ElementValue
Catalog49262
Name2021-088C
Epoch Orbit428
Epoch Day299.41250588
Epoch Year2021
RAAN6.8943
Inclination97.6289
Eccentricity0.0022909
Argument of Perigee152.5537
Mean Anonmoly207.6902
Mean Motion15.00590522
Decay Rate1.812E-05
L11 49262U 21088C 21299.41250588 .00001812 00000-0 14745-3 0 9994
L22 49262 97.6289 6.8943 0022909 152.5537 207.6902 15.00590522 4285

Live tracking and technical data element details for 2021-088C (NORAD 49262). 2021-088C can be tracked NOW for your location showing map with azimuth and elevation plus other details from your city location.

Track the satellite on the map from your city or location and see movement details for azimuth, elevation, latitude, longitude, range, height, and movement on the map or in text.







IsCatalogInMostPopularTable: catalog: 49262, numindb: 15
Update: records affected: 1



GetName: 49262 2021-088C

Hit Count: updated at: Mon, 06 Dec 2021 14:51:37 GMT